www.pogodaiklimat.ru

Погода и климат >> Архив погоды >> Антарктида >> Dumont Durville


ПОГОДА в Dumont Durville

  • Прогноз погоды в Dumont Durville
  • Монитор погоды в Dumont Durville
  • Климат города

АРХИВ ПОГОДЫ в Dumont Durville

Время (UTC), дата Ветер
(напр.,м/с)
 
Видим.   Явления Облачность Т
(С)
Тd
(С)
f
(%)
Тe
(С)
Тes
(С)
Комфортность P
(гПа)
Po
(гПа)
Тmin
(С)
Tmax
(С)
R
(мм)
R24
(мм)
S
(см)
18 19.04 В 14-24
{25}
н/о н/о -6.3 -12.4 62 -17 -17 988.6 983.2
21 19.04 В 11-17
{24}
10 км 4/4 1500 м
[]
-6.1 -12.0 63 -16 -16 991.3 985.9
00 20.04 В 9-15
{24}
15 км 9/9 1500 м
[Sc]
-4.7 -10.3 65 -14 -14 993.7 988.3 -7.1 -2.7
03 20.04 ЮВ 10
{19}
15 км 9/9 1500 м
[Sc]
-5.1 -9.5 71 -14 -14 995.2 989.8
06 20.04 В 6
{19}
10 км слабый снег 10/10 1000 м
[Sc]
-5.1 -9.5 71 -13 -13 997.7 992.3
09 20.04 ЮВ 8 10 км {снег} 5/5 1500 м
[Sc]
-6.7 -13.4 59 -15 -15 998.8 993.3
12 20.04 В 3
{14}
н/о н/о -7.5 -13.9 60 -13 -13 999.4 993.9 -8.0 -4.6
15 20.04 Ю 3 н/о н/о -8.5 -14.9 60 -14 -14 998.7 993.2
18 20.04 В 2 н/о н/о -7.2 -16.1 49 -10 -10 996.9 991.4
21 20.04 ЮВ 3 10 км 3/0 2000 м
[]
-8.0 -16.4 51 -13 -13 995.7 990.2
00 21.04 ЮВ 6 25 км 1/1 2000 м
[Sc]
-9.2 -18.0 49 -17 -17 994.4 988.9 -10.0 -6.7
03 21.04 ЮВ 6 50 км 1/1 2000 м
[Sc]
-7.9 -18.3 43 -16 -16 994.1 988.6
06 21.04 ЮВ 2 50 км 1/0
[Ci fib]
-8.8 -18.9 44 -12 -12 994.0 988.5
09 21.04 ЮВ 7 10 км 1/0
[Ci fib]
-11.2 -19.6 50 -20 -20 994.7 989.1
12 21.04 ЮВ 5 н/о н/о -11.9 -21.2 46 -20 -20 994.8 989.2 -12.2 -6.6
15 21.04 В 3 н/о н/о -11.9 -20.0 51 -18 -18 994.5 988.9
18 21.04 В 4 н/о н/о -11.2 -17.8 58 -18 -18 992.6 987.1
21 21.04 СВ 8 10 км 10/0 2000 м
[]
-11.0 -17.3 60 -21 -21 990.5 985.0
00 22.04 В 6 н/о н/о -13.7 -15.8 84 -23 -23 989.8 984.2 -13.7 -10.7
03 22.04 В 7 3000 м слабый снег 10/10 1200 м
[Sc]
-12.8 -15.4 81 -23 -23 987.2 981.7
06 22.04 В 5 8000 м слабый снег 10/10 1500 м
[Sc]
-12.4 -15.6 77 -20 -20 985.9 980.4
09 22.04 В 10-17
{20}
8000 м {снег} 8/8 2000 м
[Sc]
-13.0 -17.0 72 -24 -24 986.2 980.7
12 22.04 В 6
{21}
н/о н/о -13.8 -20.1 59 -23 -23 986.6 981.0 -15.3 -12.0
15 22.04 В 8
{20}
н/о н/о -15.6 -22.8 54 -27 -27 987.3 981.7
18 22.04 ЮВ 7
{20}
н/о н/о -15.6 -22.6 55 -26 -26 987.3 981.7
21 22.04 В 10-20
{24}
10 км 3/0
[]
-15.8 -21.2 63 -28 -28 988.3 982.7
00 23.04 В 9-18
{24}
30 км {метель} 3/0
[As trans]
-13.5 -22.0 49 -24 -24 989.8 984.2 -16.3 -13.5
03 23.04 ЮВ 8
{22}
н/о н/о -11.7 -20.8 47 -21 -21 991.6 986.1
06 23.04 В 5
{22}
30 км ясно -10.8 -21.8 40 -18 -18 993.7 988.2
09 23.04 ЮВ 4 10 км ясно -10.3 -22.9 35 -17 -17 994.9 989.4
12 23.04 ЮВ 12
{16}
н/о н/о -12.2 -23.1 40 -24 -24 996.6 991.0 -14.1 -9.9
15 23.04 ЮВ 3
{16}
н/о н/о -13.6 -22.3 48 -20 -20 998.6 993.0
18 23.04 Ю 8
{16}
н/о н/о -15.3 -22.5 54 -26 -26 999.5 993.8
21 23.04 ЮВ 1 10 км ясно -14.4 -23.5 46 -15 -15 1001.0 995.3
00 24.04 ЮВ 6 50 км 1/0
[Ci fib]
-13.5 -23.2 44 -22 -22 1001.7 996.1 -15.4 -12.0
03 24.04 ЮВ 4 н/о н/о -12.0 -22.3 42 -19 -19 1001.1 995.5
06 24.04 С 4 30 км 8/0
[Ac As Cs]
-12.7 -17.6 67 -20 -20 1001.0 995.4
09 24.04 С 1 10 км 9/0
[Ac As]
-13.8 -18.6 67 -16 -16 1000.3 994.7
12 24.04 Ю 3 н/о н/о -12.8 -22.3 45 -19 -19 998.6 993.0 -14.0 -11.4
15 24.04 З 1 н/о н/о -12.6 -21.6 47 -15 -15 996.7 991.1
18 24.04 ЮВ 3 н/о н/о -13.0 -21.7 48 -19 -19 994.3 988.7
21 24.04 ЮВ 4 10 км 4/0
[]
-12.5 -21.8 46 -19 -19 993.3 987.7
00 25.04 ЮВ 5
{15}
25 км 8/0
[Ac trans]
-12.0 -21.0 47 -20 -20 992.1 986.5 -13.2 -11.6
03 25.04 Ю 6 10 км 6/0
[Ac trans]
-12.6 -20.4 52 -21 -21 991.1 985.5
06 25.04 В 2 25 км 9/3 2000 м
[Sc Ac trans]
-12.0 -19.4 54 -17 -17 989.4 983.9
09 25.04 В 3 10 км 9/3 2000 м
[Sc Ac trans]
-11.9 -19.6 53 -17 -17 988.3 982.8
12 25.04 Ю 4 н/о н/о -12.0 -19.7 53 -19 -19 987.8 982.3 -12.8 -10.4
15 25.04 ЮВ 2 н/о н/о -12.3 -18.7 59 -16 -16 987.0 981.5
18 25.04 ЮВ 6 н/о н/о -12.9 -21.4 49 -22 -22 986.2 980.7
21 25.04 ЮВ 6 10 км 9/9 1500 м
[]
-13.2 -21.2 51 -22 -22 985.9 980.4
00 26.04 ЮВ 5 10 км 3/3 1500 м
[Sc]
-15.1 -23.4 49 -24 -24 985.7 980.1 -15.6 -11.8
03 26.04 ЮВ 7 30 км 1/1 2000 м
[Sc]
-14.7 -23.8 46 -25 -25 984.5 978.9
06 26.04 В 3
{14}
30 км ясно -16.7 -24.1 53 -23 -23 984.3 978.7
09 26.04 Ю 9
{17}
10 км ясно -18.8 -25.0 58 -32 -32 опасность
обморожения
984.9 979.2
12 26.04 СВ 2
{17}
н/о н/о -18.7 -25.5 55 -23 -23 985.9 980.2 -19.2 -13.6
15 26.04 Ю 3
{16}
н/о н/о -19.0 -24.8 60 -26 -26 987.0 981.3

 

Местоположение метеостанции Dumont Durville (Антарктида): широта -66.66 долгота 140.01 высота над уровнем моря 43 м.

В архиве по умолчанию представлена погода в Dumont Durville за последнюю неделю. Архивные данные за месяц целиком и за предыдущие месяцы, начиная с января 2011 года, Вы можете получить, выбрав интересующий диапазон дат из раскрывающегося списка и нажав кнопку "Ввод!".


*Определитесь, кто Вы:
робот инопланетянин человек

Внимание! Время в таблицах - всемирное. Для получения местного времени необходимо прибавить поправку, которая в Dumont Durville равна 0 ч.

Смотрите также архив погоды в соседних городах и на ближайших метеорологических станциях:

Погода в D-47 (Антарктида) (98 км)
Погода в Sitry Point (Антарктида) (651 км)
Погода в Mid Point (Антарктида) (691 км)
Погода в Leningradskaya (Антарктида) (860 км)
Погода в Dome C II (Антарктида) (1110 км)
Погода в Macquarie Island (Австралия) (1688 км)

Пояснения к столбцам:

Ветер - указаны скорость ветра в м/с - средняя за 10 мин, порывы в срок и между сроками (в фигурных скобках) и направление, откуда дует ветер: С - северный, СВ - северо-восточный, В - восточный, ЮВ - юго-восточный, Ю - южный, ЮЗ - юго-западный, З - западный, СЗ - северо-западный.
Видимость - горизонтальная дальность видимости в метрах или километрах. При видимости от 1 до 10 км при отсутствии осадков обычно наблюдается дымка, при ухудшении видимости до 1 км и менее - туман. В сухую погоду видимость может ухудшаться дымом, пылью или мглою.
Явления - указаны атмосферные явления, наблюдавшиеся в срок или в последний час перед сроком; фигурными скобками обозначены явления, наблюдавшиеся между сроками (за 1-3 часа до срока); квадратными скобками обозначены град или гололедные отложения с указанием их диаметра в мм.
Облачность - указаны через наклонную черту общая и нижняя облачность в баллах и высота нижней границы облаков в метрах; квадратными скобками обозначены формы облаков: Ci - перистые, Cs - перисто-слоистые, Cc - перисто-кучевые, Ac - высококучевые, As - высокослоистые, Sc - слоисто-кучевые, Ns - слоисто-дождевые, Cu - кучевые, Cb - кучево-дождевые. Подробнее классификацию облаков см. в Атласе облаков (PDF).
T - Температура воздуха - температура, измеренная на высоте 2 м над землей.
Td - Температура точки росы - температура, при понижении до которой содержащийся в воздухе водяной пар достигнет насыщения.
f - Относительная влажность воздуха - влажноcть воздуха, измеренная на высоте 2 м над землей.
Te - Эффективная температура - температура, которую ощущает одетый по сезону человек в тени. Характеристика душности погоды. При расчете учитывается влияние влажности воздуха и скорости ветра на теплоощущения человека.
Tes - Эффективная температура на солнце - температура, которую ощущает человек, с поправкой на солнечный нагрев. Характеристика знойности погоды. Зависит от высоты солнца над горизонтом, облачности и скорости ветра. Ночью, в пасмурную погоду, а также при ветре 12 м/с и более поправка равна нулю.
P - Атмосферное давление - приведенное к уровню моря атмосферное давление.
Po - Атмосферное давление - измеренное на уровне метеостанции атмосферное давление.
Tmin - Минимальная температура - минимум температуры воздуха на высоте 2 м над землей.
Tmax - Максимальная температура - максимум температуры воздуха на высоте 2 м над землей.
R - Количество осадков - Количество выпавших осадков за период времени, мм. При наведении курсора мыши на число - период времени, за который выпало указанное количество осадков.
R24 - Количество осадков - Количество выпавших осадков за 24 часа, мм.
S - Снежный покров - Высота снежного покрова, см. При наведении курсора мыши на число - состояние снежного покрова и степень покрытия местности в баллах.